Weather History for Asheville, NC

Change the Weather History Date:

Thursday, October 16, 2014

  Actual Average Record
Temperature  
Mean Temperature 55 °F 56 °F  
Max Temperature 62 °F 68 °F 87 °F (1897)
Min Temperature 47 °F 44 °F 29 °F (1939)
Degree Days  
Heating Degree Days 10 9  
Month to date heating degree days 77 110  
Since 1 July heating degree days 96 167  
Cooling Degree Days 0 0  
Month to date cooling degree days 15 7  
Year to date cooling degree days 919 859  
Growing Degree Days 5 (Base 50)    
Moisture  
Dew Point 48 °F    
Average Humidity 80    
Maximum Humidity 100    
Minimum Humidity 60    
Precipitation  
Precipitation 0.08 in 0.09 in 2.43 in (1964)
Month to date precipitation 4.02 1.55  
Year to date precipitation 40.67 36.97  
Snow  
Snow 0.00 in 0.00 in 0.00 in ()
Month to date snowfall 0.0 0.0  
Since 1 July snowfall 0.0 0.0  
Since 1 September snowfall 0.0 0.0  
Snow Depth 0.00 in    
Sea Level Pressure  
Sea Level Pressure 29.84 in    
Wind  
Wind Speed 5 mph (NW)    
Max Wind Speed 16 mph    
Max Gust Speed 22 mph    
Visibility 6 miles    
Events Rain    
T = Trace of Precipitation, MM = Missing Value Source: NWS Daily Summary

Daily Weather History Graph

Daily Weather History Graph

Search for Another Location

Airport:

Trip Planner

Search our weather history database for the weather conditions in past years. The results will help you decide how hot, cold, wet, or windy it might be!

Date:

Astronomy

Oct. 16, 2014 Rise Set
Actual Time 7:37 AM EDT 6:53 PM EDT
Civil Twilight 7:11 AM EDT 7:19 PM EDT
Nautical Twilight 6:42 AM EDT 7:48 PM EDT
Astronomical Twilight 6:12 AM EDT 8:18 PM EDT
Moon 12:59 AM EDT (10/16) 2:51 PM EDT (10/16)
Length of Visible Light 12h 07m
Length of Day
11h 16m
Last Quarter, 42% of the Moon is Illuminated
Oct 16
Last Quarter
Oct 23
New
Oct 30
First Quarter
Nov 6
Full
Nov 14
Last Quarter

Hourly Weather History & Observations

Time (EDT) Temp. Dew Point Humidity Pressure Visibility Wind Dir Wind Speed Gust Speed Precip Events Conditions
12:54 AM 51.1 °F 48.9 °F 92% 29.81 in 10.0 mi Calm Calm - 0.00 in Rain Light Rain
1:54 AM 51.1 °F 48.9 °F 92% 29.81 in 10.0 mi Calm Calm - 0.04 in Rain Light Rain
2:54 AM 51.8 °F 48.2 °F 88% 29.83 in 10.0 mi Calm Calm - N/A Rain Light Rain
3:54 AM 51.1 °F 48.9 °F 92% 29.78 in 10.0 mi Calm Calm - 0.01 in   Overcast
4:23 AM 51.1 °F 48.9 °F 92% 29.81 in 10.0 mi Calm Calm - N/A   Overcast
4:45 AM 51.1 °F 48.9 °F 92% 29.82 in 10.0 mi Calm Calm - N/A   Mostly Cloudy
4:54 AM 51.1 °F 48.9 °F 92% 29.78 in 10.0 mi Calm Calm - N/A   Mostly Cloudy
5:31 AM 50.0 °F 48.9 °F 96% 29.81 in 10.0 mi NNW 3.5 mph - N/A   Overcast
5:54 AM 51.1 °F 48.0 °F 89% 29.78 in 10.0 mi Calm Calm - N/A   Overcast
5:58 AM 50.0 °F 48.0 °F 93% 29.82 in 2.5 mi SW 3.5 mph - N/A   Overcast
6:01 AM 48.9 °F 48.0 °F 97% 29.82 in 1.0 mi SW 3.5 mph - N/A   Overcast
6:09 AM 48.9 °F 48.0 °F 97% 29.82 in 0.8 mi West 3.5 mph - N/A   Overcast
6:14 AM 50.0 °F 48.0 °F 93% 29.82 in 1.8 mi WSW 3.5 mph - N/A   Overcast
6:16 AM 50.0 °F 48.0 °F 93% 29.82 in 4.0 mi WSW 3.5 mph - N/A   Overcast
6:33 AM 50.0 °F 48.0 °F 93% 29.81 in 8.0 mi Calm Calm - N/A   Overcast
6:54 AM 48.9 °F 48.0 °F 97% 29.79 in 2.0 mi Calm Calm - N/A   Mostly Cloudy
7:04 AM 48.9 °F 48.0 °F 97% 29.83 in 2.0 mi WSW 3.5 mph - N/A   Mostly Cloudy
7:07 AM 48.9 °F 48.0 °F 97% 29.83 in 1.8 mi WSW 3.5 mph - N/A   Mostly Cloudy
7:14 AM 48.9 °F 48.0 °F 97% 29.83 in 1.2 mi West 3.5 mph - N/A   Overcast
7:18 AM 48.9 °F 48.0 °F 97% 29.83 in 2.0 mi Calm Calm - N/A   Overcast
7:27 AM 48.9 °F 48.0 °F 97% 29.83 in 5.0 mi NNW 3.5 mph - N/A   Overcast
7:40 AM 48.9 °F 46.9 °F 93% 29.84 in 2.5 mi NW 3.5 mph - N/A   Mostly Cloudy
7:49 AM 48.2 °F 46.4 °F 93% 29.83 in 2.5 mi NNW 4.6 mph - N/A   Mostly Cloudy
7:54 AM 48.9 °F 46.9 °F 93% 29.81 in 2.5 mi NW 3.5 mph - N/A   Mostly Cloudy
8:06 AM 48.9 °F 48.0 °F 97% 29.84 in 2.5 mi NW 3.5 mph - N/A   Mostly Cloudy
8:16 AM 48.9 °F 48.0 °F 97% 29.85 in 2.5 mi SW 4.6 mph - N/A   Overcast
8:27 AM 48.9 °F 48.0 °F 97% 29.85 in 2.5 mi SSW 3.5 mph - N/A   Overcast
8:39 AM 50.0 °F 48.0 °F 93% 29.85 in 2.5 mi Calm Calm - N/A   Overcast
8:54 AM 50.0 °F 48.0 °F 93% 29.83 in 2.5 mi Variable 4.6 mph - N/A   Overcast
9:01 AM 51.1 °F 48.9 °F 92% 29.86 in 10.0 mi NNW 8.1 mph - N/A   Overcast
9:16 AM 52.0 °F 48.9 °F 89% 29.86 in 2.5 mi North 8.1 mph - N/A   Mostly Cloudy
9:32 AM 53.1 °F 48.9 °F 86% 29.87 in 2.5 mi NNW 11.5 mph - N/A   Scattered Clouds
9:40 AM 53.1 °F 48.9 °F 86% 29.87 in 2.5 mi NNW 10.4 mph - N/A   Mostly Cloudy
9:54 AM 55.0 °F 50.0 °F 83% 29.84 in 2.5 mi NNW 9.2 mph - N/A   Mostly Cloudy
10:01 AM 55.0 °F 48.9 °F 80% 29.87 in 10.0 mi North 9.2 mph - N/A   Overcast
10:03 AM 55.0 °F 48.9 °F 80% 29.87 in 4.0 mi North 8.1 mph - N/A   Mostly Cloudy
10:36 AM 54.0 °F 48.9 °F 83% 29.86 in 4.0 mi NNW 5.8 mph - N/A   Overcast
10:54 AM 54.0 °F 48.0 °F 80% 29.83 in 4.0 mi North 4.6 mph - N/A   Overcast
11:54 AM 55.0 °F 48.0 °F 77% 29.85 in 4.0 mi North 9.2 mph - N/A   Haze
12:35 PM 57.0 °F 48.0 °F 72% 29.88 in 10.0 mi North 6.9 mph - N/A   Overcast
12:54 PM 57.9 °F 48.9 °F 72% 29.84 in 10.0 mi NNW 10.4 mph - N/A   Overcast
1:23 PM 55.9 °F 46.9 °F 72% 29.88 in 10.0 mi NNW 9.2 mph - 0.00 in Rain Light Rain
1:54 PM 57.9 °F 48.0 °F 70% 29.85 in 10.0 mi North 9.2 mph - 0.00 in   Overcast
2:01 PM 57.9 °F 46.9 °F 67% 29.88 in 10.0 mi NNW 10.4 mph - N/A   Mostly Cloudy
2:54 PM 60.1 °F 46.0 °F 60% 29.83 in 10.0 mi North 12.7 mph - N/A   Mostly Cloudy
3:54 PM 60.1 °F 46.0 °F 60% 29.84 in 10.0 mi North 6.9 mph 17.3 mph N/A   Overcast
4:54 PM 57.9 °F 45.0 °F 62% 29.85 in 10.0 mi North 9.2 mph - N/A   Mostly Cloudy
5:54 PM 57.9 °F 45.0 °F 62% 29.87 in 10.0 mi North 8.1 mph - N/A   Mostly Cloudy
6:54 PM 55.0 °F 46.0 °F 72% 29.88 in 10.0 mi North 8.1 mph - N/A   Partly Cloudy
7:54 PM 54.0 °F 46.0 °F 75% 29.90 in 10.0 mi North 5.8 mph - N/A   Mostly Cloudy
8:54 PM 51.1 °F 46.9 °F 86% 29.91 in 10.0 mi NNW 3.5 mph - N/A   Partly Cloudy
9:54 PM 50.0 °F 46.9 °F 89% 29.92 in 10.0 mi NW 4.6 mph - N/A   Partly Cloudy
10:54 PM 50.0 °F 46.4 °F 87% 29.96 in 10.0 mi Calm Calm - N/A   Mostly Cloudy
11:54 PM 48.9 °F 46.0 °F 90% 29.93 in 10.0 mi NNW 5.8 mph - N/A   Clear